Lebec, CA

8:32 PM PDT on August 31, 2016 (GMT -0700)
Sandberg

Weather History for KSDB - April, 2013

Change the Weather History Date:

Thursday, April 4, 2013

  Actual Average Record
Temperature  
Mean Temperature 59 °F 48 °F  
Max Temperature 66 °F 57 °F 78 °F (1960)
Min Temperature 51 °F 40 °F 24 °F (1999)
Degree Days  
Heating Degree Days 6 17  
Month to date heating degree days 32 68  
Since 1 July heating degree days 2701 3397  
Cooling Degree Days 0 0  
Month to date cooling degree days 0 0  
Year to date cooling degree days 11 1  
Growing Degree Days 6 (Base 50)    
Moisture  
Dew Point 40 °F    
Average Humidity 57    
Maximum Humidity 77    
Minimum Humidity 37    
Precipitation  
Precipitation 0.00 in 0.02 in 1.00 in (2006)
Month to date precipitation 0.00 0.12  
Year to date precipitation 2.52 7.50  
Since 1 July precipitation 3.89  
Sea Level Pressure  
Sea Level Pressure 30.02 in    
Wind  
Wind Speed 12 mph (NW)    
Max Wind Speed 25 mph    
Max Gust Speed 33 mph    
Visibility 10 miles    
Events      
T = Trace of Precipitation, MM = Missing Value Source: NWS Daily Summary

Daily Weather History Graph

Daily Weather History Graph

Search for Another Location

Airport or City:

Trip Planner

Search our weather history database for the weather conditions in past years. The results will help you decide how hot, cold, wet, or windy it might be!

Date:

Astronomy

Apr. 04, 2013 Rise Set
Actual Time 6:37 AM PDT 7:18 PM PDT
Civil Twilight 6:11 AM PDT 7:44 PM PDT
Nautical Twilight 5:41 AM PDT 8:14 PM PDT
Astronomical Twilight 5:11 AM PDT 8:45 PM PDT
Moon 2:54 AM PDT (4/4) 1:54 PM PDT (4/4)
Length of Visible Light 13h 32m
Length of Day
12h 41m
Waning Crescent, 32% of the Moon is Illuminated
Apr 4
Waning Crescent
Apr 10
New
Apr 18
First Quarter
Apr 25
Full
May 2
Last Quarter

Hourly Weather History & Observations

Time (PDT) Temp. Dew Point Humidity Pressure Visibility Wind Dir Wind Speed Gust Speed Precip Events Conditions
12:48 AM 57.9 °F 37.0 °F 46% 30.01 in 10.0 mi South 8.1 mph - N/A   Clear
1:48 AM 57.9 °F 35.1 °F 42% 30.00 in 10.0 mi South 8.1 mph - N/A   Clear
2:48 AM 57.0 °F 35.1 °F 44% 29.99 in 10.0 mi SSW 10.4 mph - N/A   Clear
3:48 AM 55.9 °F 35.1 °F 45% 29.98 in 10.0 mi South 8.1 mph - N/A   Clear
4:48 AM 55.9 °F 34.0 °F 44% 29.98 in 10.0 mi SSW 6.9 mph - N/A   Clear
5:48 AM 54.0 °F 33.1 °F 45% 29.99 in 10.0 mi Variable 3.5 mph - N/A   Clear
6:48 AM 55.9 °F 32.0 °F 40% 30.01 in 10.0 mi WSW 4.6 mph - N/A   Clear
7:48 AM 57.0 °F 39.0 °F 51% 30.02 in 10.0 mi NW 4.6 mph - N/A   Clear
8:48 AM 59.0 °F 39.0 °F 48% 30.05 in 10.0 mi NW 4.6 mph - N/A   Clear
9:48 AM 59.0 °F 34.0 °F 39% 30.06 in 10.0 mi North 12.7 mph 25.3 mph N/A   Overcast
10:48 AM 59.0 °F 37.9 °F 46% 30.07 in 10.0 mi NNW 24.2 mph 32.2 mph N/A   Overcast
11:48 AM 57.9 °F 41.0 °F 53% 30.06 in 10.0 mi NNW 19.6 mph - N/A   Mostly Cloudy
12:48 PM 66.0 °F 41.0 °F 40% 30.04 in 10.0 mi NW 17.3 mph 20.7 mph N/A   Scattered Clouds
1:48 PM 64.9 °F 39.9 °F 40% 30.02 in 10.0 mi NNW 15.0 mph 20.7 mph N/A   Partly Cloudy
2:48 PM 64.0 °F 41.0 °F 43% 30.00 in 10.0 mi North 9.2 mph 21.9 mph N/A   Clear
3:48 PM 64.0 °F 41.0 °F 43% 29.99 in 10.0 mi North 10.4 mph 20.7 mph N/A   Clear
4:48 PM 61.0 °F 41.0 °F 48% 29.98 in 10.0 mi NNW 16.1 mph - N/A   Scattered Clouds
5:48 PM 59.0 °F 41.0 °F 51% 29.99 in 10.0 mi NNW 16.1 mph 20.7 mph N/A   Overcast
6:48 PM 55.9 °F 41.0 °F 57% 29.99 in 10.0 mi North 10.4 mph 17.3 mph N/A   Partly Cloudy
7:48 PM 54.0 °F 42.1 °F 64% 29.99 in 10.0 mi North 6.9 mph - N/A   Clear
8:48 PM 54.0 °F 42.1 °F 64% 29.99 in 10.0 mi NNW 17.3 mph - N/A   Clear
9:48 PM 53.1 °F 42.1 °F 66% 30.02 in 10.0 mi NNW 12.7 mph - N/A   Partly Cloudy
10:48 PM 53.1 °F 45.0 °F 74% 30.02 in 10.0 mi NNW 12.7 mph - N/A   Partly Cloudy
11:21 PM 53.6 °F 46.4 °F 77% 30.12 in 10.0 mi NNW 16.1 mph - N/A   Mostly Cloudy
11:28 PM 51.8 °F 46.4 °F 82% 30.12 in 10.0 mi NNW 16.1 mph - N/A   Overcast
11:48 PM 53.1 °F 46.9 °F 80% 30.02 in 10.0 mi NNW 15.0 mph - N/A   Mostly Cloudy